Overview Statistics Trail Chart Weather Telemetry Raw packets
 

This is the latest recevied weather packets stored in our database for station/object KC5DAQ-26. If no packets are shown the sender has not sent any weather packets the latest 10 day(s).

<< 424 425 426 427 428 429 430 >>
Time Temp. Humidity Pressure Rain* Wind** Luminosity Snow
1788036816 35° C 55% 1018.1 hPa 0 mm - 241 W/m² -
1788036757 35° C 55% 1018 hPa 0 mm - 206 W/m² -
1788036696 35° C 55% 1018.1 hPa 0 mm - 499 W/m² -
1788036639 35° C 56% 1018.1 hPa 0 mm - 554 W/m² -
1788036577 35° C 56% 1018.1 hPa 0 mm - 213 W/m² -
1788036529 35.56° C 56% 1018.1 hPa 0 mm - 730 W/m² -
1788036454 35.56° C 58% 1018.1 hPa 0 mm - 744 W/m² -
1788036393 35.56° C 55% 1018.1 hPa 0 mm - 768 W/m² -
1788036331 35.56° C 56% 1018.2 hPa 0 mm - 781 W/m² -
1788036271 35.56° C 57% 1018.2 hPa 0 mm - 788 W/m² -
1788036213 35.56° C 57% 1018.2 hPa 0 mm - 800 W/m² -
1788036152 35.56° C 56% 1018.2 hPa 0 mm - 805 W/m² -
1788036093 35.56° C 57% 1018.2 hPa 0 mm - 814 W/m² -
1788036032 35.56° C 56% 1018.2 hPa 0 mm - 814 W/m² -
1788035970 35.56° C 57% 1018.2 hPa 0 mm - 821 W/m² -
1788035913 35.56° C 57% 1018.2 hPa 0 mm - 842 W/m² -
1788035853 35.56° C 57% 1018.3 hPa 0 mm - 851 W/m² -
1788035792 35.56° C 55% 1018.3 hPa 0 mm - 848 W/m² -
1788035731 35.56° C 56% 1018.3 hPa 0 mm - 837 W/m² -
1788035671 35.56° C 57% 1018.3 hPa 0 mm - 833 W/m² -
1788035612 35.56° C 55% 1018.3 hPa 0 mm - 837 W/m² -
1788035551 35.56° C 55% 1018.4 hPa 0 mm - 833 W/m² -
1788035491 35.56° C 56% 1018.3 hPa 0 mm - 832 W/m² -
1788035433 35.56° C 57% 1018.4 hPa 0 mm - 853 W/m² -
1788035371 35.56° C 60% 1018.4 hPa 0 mm - 849 W/m² -

* Rain latest hour (hover to see other rain measurements)
** Current wind speed in m/s (hover to see current wind gust speed)